Location: San Gennaro Vesuviano
(40.8833°N, 14.5333°E)
Time: 10:50:47
(UTC+00:00)

Cosmos 909 Rocket - Pass Details

Date: 22 April 2021
Orbit: 989 x 2090 km, 65.9° (Epoch: 10 May)

Event Time Altitude Azimuth Distance (km) Brightness Sun altitude
Rises 18:30:16 0° 208° (SSW) 3,852 7.2 -8.1°
Reaches altitude 10° 18:32:56 10° 208° (SSW) 2,826 6.5 -8.6°
Maximum altitude 18:39:21 87° 121° (ESE) 996 4.0 -9.7°
Drops below altitude 10° 18:45:44 10° 32° (NNE) 2,811 6.4 -10.7°
Sets 18:48:23 0° 32° (NNE) 3,830 7.1 -11.2°
